SOLRAD 11A/B AKM, 8753

Orbit data source: Space-Track

SOLRAD 11A/B AKM, 8753 is space debris originally from a launch on Mon, 15 Mar 1976 UTC launched from the Air Force Eastern Test Range (AFETR). Debris objects in space refer to the collection of defunct objects orbiting the Earth. Examples of debris include non-operational satellites, rocket bodies, and fragments generated from explosions, collisions, or faulty payload assembly.

Loading next visibility...
SOLRAD 11A/B AKM details
Identifier
8753, 1976-023H
Orbit
Active
Last TLE updatein 1 day
Origin
Flag of USSAMSO (US)
ManufacturerThiokol/TE
MissionSpacecraft
Bus & MotorSTAR 13A, Unknown motor
Mass10 kg wet, 10 kg dry
Launch date (UTC)
1976-03-15 (49 years ago)
Launch vehicleUnknown
Launch site
Air Force Eastern Test Range (AFETR)
Object type
Payload
Rocket body
Debris
Shape & HBRUnknown
Radar Cross SectionRCS unknown

Expand to show TLE details & history

TLE from in 1 day
0 SOLRAD 11A/B AKM
1 08753U 76023H   25037.55352667 -.00000888  00000-0  00000-0 0  9992
2 08753  13.9580 333.2903 0304696 103.2620   4.5754  0.18712785  4486
Epoch: 2025-02-06T13:17Z
Definitive object data (Epoch: 2025-02-06T13:17:04.704Z)
Latitude13.28624°
Longitude105.74477°
Altitude118,841.194 km
Speed1.811 km/s
True Right ascension05h 27m 46s
True Declination13° 16' 55"
Sunlit
Object was in daylight at TLE epoch
Visualization TLE readout
Latitude4.33442°
Longitude15.00903°
Altitude122,343.487 km
Speed1.762 km/s
Apparent Right ascension23h 19m 11s
Apparent Declination2° 27' 06"
Sunlit
Object is in daylight
Visualization observer readout
Local Sidereal Time08:38:58
Azimuth309.152° NW
Elevation-33.991°
Doppler factor1
Orbital elements
Apogee altitude126,671.202 km
Perigee altitude118,803.022 km
Semi-major axis129,115.249 km
Eccentricity0.0304696
Inclination13.958°
RAAN333.2903°
Arg. of periapsis103.262°
True anomaly4.8649°
Mean anomaly4.5754°
Eccentric anomaly4.71902°
Mean motion0.04678 °/min
BSTARUnknown
Orbital period7695.3 mins
Loading maneuver chart data...
Loading historical data...
Loading historical data...
Loading historical data...
Loading historical data...
Loading historical data...
Loading historical data...
Loading historical data...

SOLRAD 11A/B AKM Visibility forecast

Observer location: undefined°, undefined

Span
Click to sort rows by Start time (UTC) header in descending order
Start Az.
Max El. time (UTC)
Max El. Az.
Max El.
End time (UTC)
End Az.
754 mins2025-02-05 18:02:45.954Z86.72° E2025-02-06 00:54:45.954Z181.899° SSW41.422°2025-02-06 06:36:45.954Z267.753° W
|